Overview Statistics Trail Chart Weather Telemetry Raw packets
 

This is the latest recevied weather packets stored in our database for station/object IW1RCO-13. If no packets are shown the sender has not sent any weather packets the latest 10 day(s).

<< 39 40 41 42 43 44 45 >>
Time Temp. Humidity Pressure Rain* Wind** Luminosity Snow
1788359972 27.22° C 70% 1017.5 hPa - - - -
1788359669 27.78° C 68% 1017.4 hPa - - - -
1788359372 27.78° C 70% 1017 hPa - - - -
1788359069 26.67° C 73% 1019 hPa - - - -
1788358772 26.67° C 74% 1017.2 hPa - - - -
1788358468 27.22° C 73% 1017.2 hPa - - - -
1788358171 27.22° C 72% 1017.2 hPa - - - -
1788357868 28.33° C 70% 1017.7 hPa - - - -
1788357571 27.22° C 71% 1017.8 hPa - - - -
1788357268 27.78° C 70% 1018.6 hPa - - - -
1788356971 27.78° C 70% 1017.3 hPa - - - -
1788356667 27.78° C 70% 1017.6 hPa - - - -
1788356371 27.78° C 70% 1017.7 hPa - - - -
1788356067 28.33° C 67% 1018.9 hPa - - - -
1788355770 29.44° C 64% 1017.9 hPa - - - -
1788355467 28.89° C 67% 1018.7 hPa - - - -
1788355170 28.33° C 67% 1017.9 hPa - - - -
1788354867 28.89° C 67% 1019.2 hPa - - - -
1788354570 28.33° C 68% 1018.4 hPa - - - -
1788354267 28.33° C 70% 1017.6 hPa - - - -
1788353970 28.33° C 70% 1018.6 hPa - - - -
1788353666 28.33° C 67% 1019.1 hPa - - - -
1788353369 27.78° C 70% 1019 hPa - - - -
1788353066 27.22° C 70% 1017.8 hPa - - - -
1788352769 27.22° C 70% 1018.9 hPa - - - -

* Rain since midnight (hover to see other rain measurements)
** Current wind speed in m/s (hover to see current wind gust speed)